Вернуться в каталог

CZ-6A DEB

АктивенPO
NORAD 61130·DEBRIS·🇨🇳 China

Запущен Aug 6, 2024 с Taiyuan Satellite Launch Center

Loading…

Ближайшие Пролёты (ближайшие 24 часа)

TLE

СвежийSource: Space-Track

Эпоха: Sep 14, 2026, 08:33 UTC

1 61130U 24140PY  26257.35629047  .00001701  00000-0  62259-3 0  9996
2 61130  88.6248 228.9276 0067375 146.3276 214.2229 14.31200660107612

Отслеживайте CZ-6A DEB в реальном времени с AllMySat

Download on the App Store